星链-30132 (STARLINK-30132 )

导读

STARLINK-30132是美国太空探索技术公司Starlink星链互联网卫星星座的一员,于2023年5月19日发射入轨。星链项目旨在为全球提供低成本高速卫星互联网服务,该卫星承担星座组网任务,依托低轨部署降低通信延迟,提升全球偏远、基础设施薄弱区域的网络覆盖能力。

Basic Information
目录编号:
56703
目录名称:
STARLINK-30132
国际标识:
2023-067R
轨道中心:
EARTH
卫星名称:
星链-30132
卫星全名:
星链-30132 (STARLINK-30132 )
卫星状态:
在轨 (已飞行1204 天)
发射日期:
2023-05-19 UTC
国别 :
美国 (US)
星等 :
--
Orbit Information
数据来源 国际轨道数据
星历时间: 2026-09-04T15:35:22+0800
12小时前
查看轨道信息
半长轴: 6861.193km
偏心率: 0.0000685
轨道倾角: 43.001°
近地点辐角 252.520°
升交点赤经 345.250°
平近点角 107.558°
近地点: 482.586km
远地点: 483.526km
周期: 94.267分钟
每日圈数: 15.275777
Detailed Information
固有亮度:
5
最大亮度:
0.3
卫星平台:
Starlink v2.0 mini
覆盖范围:
全球
运营商:
太空探索技术公司
运营商所在国:
美国
制造商(研发单位):
太空探索技术公司
制造商所在国:
美国
使用方式:
暂无
Satellite Introduction
星链(Starlink)计划是由太空探索技术公司(SpaceX)提出的一个巨型低轨卫星互联网星座项目,计划在2019年至2024年间在太空搭建由约1.2万颗卫星组成的“星链”网络,其中1584颗将部署在地球上空550千米处的近地轨道,并从2020年开始工作。该卫星仍在工作。
2D Orbit Map
3D Orbit Map
Orbit Altitude Analysis Chart
Orbit Inclination Analysis Chart
Orbit Comprehensive Analysis Chart
View Comprehensive Chart
Conjunction Data List
Event ID Objects TCA Miss Dist (km) Collision Risk Probability Collision Risk Index (CRI) Action
CDM_260907-002005-670306-249421
2026-09-07T
00:20:42+0000
0.317 km
远距离
1.619462E-4 高风险 0.79
CDM_260904-232405-670306-763421
2026-09-04T
23:24:50+0000
0.513 km
远距离
1.488831E-4 高风险 0.78
CDM_260905-141905-670306-763421
2026-09-05T
14:19:18+0000
0.985 km
远距离
2.103936E-5 中风险 0.61
CDM_260906-233305-670306-249421
2026-09-06T
23:33:38+0000
1.100 km
极远距离
4.058094E-6 低风险 0.47
CDM_260905-005905-670306-763421
2026-09-05T
00:59:00+0000
2.012 km
极远距离
2.144127E-6 低风险 0.42
CDM_260905-124505-670306-763421
2026-09-05T
12:45:08+0000
2.823 km
极远距离
1.127268E-6 低风险 0.36
CDM_260904-215005-670306-763421
2026-09-04T
21:50:41+0000
2.923 km
极远距离
1.078763E-6 低风险 0.36
CDM_260906-215905-670306-249421
2026-09-06T
21:59:28+0000
1.784 km
极远距离
9.529254E-7 极低风险 0.35
CDM_260907-071705-670306-253121
2026-09-07T
07:17:39+0000
2.879 km
极远距离
7.442168E-7 极低风险 0.32
CDM_260906-224605-670306-249421
2026-09-06T
22:46:33+0000
2.272 km
极远距离
5.719911E-7 极低风险 0.3